GW2624 Weather Reports


time (UTC)temp
C
wind
direction
speed
KPH
gust
KPH
rain 1hr
cm
rain 24hr
cm
rain mn
cm
humidity
%
barometer
mb
20240420165404 12 185 9.7 22.5 0.00 0.00 0.00 52 1011.6
20240420164906 12 192 8.0 20.9 0.00 0.00 0.00 52 1011.6
20240420164405 12 162 11.3 20.9 0.00 0.00 0.00 52 1011.7
20240420163405 12 179 9.7 19.3 0.00 0.00 0.00 51 1011.7
20240420162905 12 200 8.0 19.3 0.00 0.00 0.00 52 1011.7
20240420160404 12 196 9.7 19.3 0.00 0.00 0.00 52 1011.4
20240420155905 11 165 9.7 25.7 0.00 0.00 0.00 54 1011.4
20240420155404 11 179 6.4 27.4 0.00 0.00 0.00 56 1011.4
20240420153404 11 187 9.7 25.7 0.00 0.00 0.00 55 1011.3
20240420152405 10 153 8.0 24.1 0.00 0.00 0.00 58 1011.4
20240420151904 10 0 11.3 22.5 0.00 0.00 0.00 59 1011.3
20240420151405 10 0 9.7 22.5 0.00 0.00 0.00 59 1011.3
20240420150905 10 0 9.7 19.3 0.00 0.00 0.00 60 1011.3
20240420150405 10 0 6.4 19.3 0.00 0.00 0.00 60 1011.4
20240420144905 10 0 8.0 19.3 0.00 0.00 0.00 61 1011.6
20240420143904 9 263 1.6 4.8 0.00 0.00 0.00 60 1011.6
20240420135405 8 0 1.6 3.2 0.00 0.00 0.00 63 1011.4
20240420134405 8 130 0.0 3.2 0.00 0.00 0.00 63 1011.4
20240420133405 8 144 1.6 3.2 0.00 0.00 0.00 63 1011.2
20240420132905 8 144 0.0 3.2 0.00 0.00 0.00 63 1011.0
20240420132404 8 144 0.0 11.3 0.00 0.00 0.00 64 1010.9
20240420131904 8 144 3.2 12.9 0.00 0.00 0.00 63 1010.8
20240420125404 8 144 9.7 20.9 0.00 0.00 0.00 65 1010.5
20240420123406 8 143 9.7 20.9 0.00 0.00 0.00 65 1010.3
20240420122904 8 157 8.0 20.9 0.00 0.00 0.00 65 1010.2
20240420122404 8 138 8.0 20.9 0.00 0.00 0.00 65 1010.2
20240420121406 8 155 9.7 19.3 0.00 0.00 0.00 64 1010.4
20240420120904 8 143 4.8 19.3 0.00 0.00 0.00 63 1010.4
20240420120404 8 144 8.0 19.3 0.00 0.00 0.00 63 1010.4
20240420115904 8 141 8.0 14.5 0.00 0.00 0.00 63 1010.4
20240420115404 8 123 0.0 3.2 0.00 0.00 0.00 61 1010.2
20240420114905 8 125 1.6 4.8 0.00 0.00 0.00 61 1010.0
20240420113905 8 123 1.6 14.5 0.00 0.00 0.00 59 1009.6
20240420113404 9 124 3.2 14.5 0.00 0.00 0.00 59 1009.6
20240420112904 9 168 4.8 11.3 0.00 0.00 0.00 59 1009.4
20240420111904 9 156 3.2 4.8 0.00 0.00 0.00 58 1008.9
20240420105905 10 195 1.6 14.5 0.00 0.00 0.00 57 1009.0
20240420104404 10 157 6.4 16.1 0.00 0.00 0.00 59 1008.6
20240420103908 10 149 3.2 16.1 0.00 0.00 0.00 59 1008.7
20240420103427 10 158 3.2 19.3 0.00 0.00 0.00 59 1008.6
20240420102906 10 142 8.0 19.3 0.00 0.00 0.00 59 1008.6
20240420102409 10 147 8.0 19.3 0.00 0.00 0.00 59 1008.8
20240420101404 10 157 8.0 19.3 0.00 0.00 0.00 58 1008.9
20240420095904 10 164 6.4 14.5 0.00 0.00 0.00 55 1008.8
20240420094904 11 178 4.8 14.5 0.00 0.00 0.00 54 1008.5
20240420092906 11 142 3.2 19.3 0.00 0.00 0.00 52 1008.2
20240420090905 11 54 3.2 20.9 0.00 0.00 0.00 51 1008.0
20240420090405 11 83 8.0 20.9 0.00 0.00 0.00 51 1008.0
20240420085905 11 127 8.0 19.3 0.00 0.00 0.00 51 1008.1
20240420085405 11 70 4.8 24.1 0.00 0.00 0.00 51 1008.0
20240420084905 11 101 4.8 24.1 0.00 0.00 0.00 51 1008.1
20240420084405 12 140 6.4 16.1 0.00 0.00 0.00 51 1008.0
20240420083405 12 139 4.8 14.5 0.00 0.00 0.00 50 1008.0
20240420082905 12 145 6.4 12.9 0.00 0.00 0.00 50 1008.0
20240420081406 12 137 6.4 16.1 0.00 0.00 0.00 50 1007.8
20240420080906 12 138 6.4 16.1 0.00 0.00 0.00 49 1007.7
20240420080406 12 132 3.2 14.5 0.00 0.00 0.00 49 1007.7
20240420074906 12 164 1.6 16.1 0.00 0.00 0.00 49 1007.8
20240420074405 12 144 8.0 24.1 0.00 0.00 0.00 49 1007.7
20240420073906 12 118 8.0 24.1 0.00 0.00 0.00 49 1007.5
20240420073405 12 115 9.7 20.9 0.00 0.00 0.00 50 1007.4
20240420071906 12 74 8.0 19.3 0.00 0.00 0.00 49 1007.2
20240420070406 12 120 3.2 25.7 0.00 0.00 0.00 50 1007.0
20240420065405 13 127 11.3 25.7 0.00 0.00 0.00 49 1007.2
20240420064907 13 103 8.0 19.3 0.00 0.00 0.00 49 1007.4
20240420064405 13 160 4.8 22.5 0.00 0.00 0.00 48 1007.4
20240420063905 13 160 9.7 22.5 0.00 0.00 0.00 47 1007.4
20240420063405 13 155 6.4 19.3 0.00 0.00 0.00 47 1007.2
20240420060405 14 103 9.7 25.7 0.00 0.00 0.00 44 1006.1
20240420055906 14 116 8.0 20.9 0.00 0.00 0.00 44 1006.0
20240420055405 14 127 6.4 24.1 0.00 0.00 0.00 44 1006.0
20240420053905 14 136 8.0 20.9 0.00 0.00 0.00 45 1006.2
20240420053406 15 60 3.2 20.9 0.00 0.00 0.00 44 1006.3
20240420051905 15 168 4.8 22.5 0.00 0.00 0.00 41 1006.5
20240420051406 15 135 6.4 19.3 0.00 0.00 0.00 40 1006.7
20240420050405 16 141 9.7 16.1 0.00 0.00 0.00 38 1006.7
20240420045905 16 148 4.8 12.9 0.00 0.00 0.00 37 1006.7
20240420045406 16 137 4.8 12.9 0.00 0.00 0.00 36 1006.7
20240420044405 16 142 3.2 8.0 0.00 0.00 0.00 35 1006.8
20240420043906 17 139 3.2 8.0 0.00 0.00 0.00 34 1006.6
20240420043405 17 142 4.8 9.7 0.00 0.00 0.00 32 1006.6
20240420042905 17 158 3.2 9.7 0.00 0.00 0.00 31 1006.7
20240420042406 17 132 3.2 11.3 0.00 0.00 0.00 31 1006.7
20240420040905 17 143 3.2 19.3 0.00 0.00 0.00 32 1006.6
20240420040405 17 101 3.2 19.3 0.00 0.00 0.00 33 1006.5
20240420035906 16 130 8.0 19.3 0.00 0.00 0.00 33 1006.5
20240420035405 16 100 4.8 12.9 0.00 0.00 0.00 33 1006.4
20240420034905 16 135 4.8 9.7 0.00 0.00 0.00 33 1006.5
20240420034406 16 159 3.2 9.7 0.00 0.00 0.00 34 1006.6
20240420033405 17 163 0.0 8.0 0.00 0.00 0.00 34 1006.6
20240420032905 16 155 3.2 12.9 0.00 0.00 0.00 33 1006.5
20240420030905 16 161 3.2 16.1 0.00 0.00 0.00 34 1006.0
20240420030405 16 24 4.8 16.1 0.00 0.00 0.00 35 1006.0
20240420024907 16 145 4.8 14.5 0.00 0.00 0.00 35 1005.9
20240420023905 15 106 3.2 11.3 0.00 0.00 0.00 29 1005.7
20240420021404 16 165 0.0 0.0 0.00 0.00 0.00 24 1005.4
20240420014404 18 165 0.0 0.0 0.00 0.00 0.00 21 1005.3
20240420011405 20 169 3.2 9.7 0.00 0.00 0.00 17 1005.3
20240420004452 21 144 3.2 11.3 0.00 0.00 0.00 16 1005.3
20240420003406 21 189 4.8 11.3 0.00 0.00 0.00 16 1005.3
20240420002905 21 164 4.8 9.7 0.00 0.00 0.00 16 1005.3
20240420001904 21 174 4.8 12.9 0.00 0.00 0.00 17 1005.4
20240420000905 21 186 9.7 20.9 0.00 0.00 0.00 16 1005.5
20240419235905 22 190 4.8 16.1 0.00 0.00 0.00 16 1005.5
20240419235404 22 243 8.0 12.9 0.00 0.00 0.00 16 1005.5
20240419234905 22 279 3.2 14.5 0.00 0.00 0.00 16 1005.6
20240419234405 22 170 3.2 14.5 0.00 0.00 0.00 16 1005.7
20240419233405 22 203 4.8 19.3 0.00 0.00 0.00 16 1005.7
20240419232905 22 182 8.0 19.3 0.00 0.00 0.00 16 1005.8
20240419231905 22 224 8.0 19.3 0.00 0.00 0.00 16 1005.8
20240419230905 22 206 8.0 29.0 0.00 0.00 0.00 16 1005.8
20240419230407 22 191 9.7 29.0 0.00 0.00 0.00 16 1005.8
20240419225905 22 168 8.0 29.0 0.00 0.00 0.00 16 1005.7
20240419225405 22 178 6.4 19.3 0.00 0.00 0.00 15 1005.9
20240419224908 22 191 6.4 19.3 0.00 0.00 0.00 14 1005.9
20240419222906 22 189 8.0 16.1 0.00 0.00 0.00 15 1005.9
20240419222405 22 259 8.0 16.1 0.00 0.00 0.00 14 1005.9
20240419220907 21 137 11.3 22.5 0.00 0.00 0.00 15 1006.1
20240419211905 21 164 8.0 20.9 0.00 0.00 0.00 14 1006.7
20240419211404 21 162 11.3 22.5 0.00 0.00 0.00 13 1006.7
20240419210904 21 179 9.7 24.1 0.00 0.00 0.00 13 1006.9
20240419205906 21 173 9.7 24.1 0.00 0.00 0.00 16 1007.0
20240419205404 21 208 8.0 20.9 0.00 0.00 0.00 19 1007.1
20240419204908 21 143 8.0 24.1 0.00 0.00 0.00 17 1007.0
20240419204405 21 175 11.3 24.1 0.00 0.00 0.00 16 1007.2
20240419203405 20 165 8.0 19.3 0.00 0.00 0.00 16 1007.3
20240419201905 20 140 9.7 22.5 0.00 0.00 0.00 21 1007.5
20240419201406 20 211 9.7 22.5 0.00 0.00 0.00 20 1007.6
20240419200405 20 213 8.0 24.1 0.00 0.00 0.00 20 1007.8
20240419195905 20 196 11.3 20.9 0.00 0.00 0.00 21 1008.0
20240419194405 20 160 9.7 19.3 0.00 0.00 0.00 21 1008.1
20240419193905 20 125 9.7 27.4 0.00 0.00 0.00 21 1008.2
20240419192905 19 230 11.3 22.5 0.00 0.00 0.00 18 1008.2
20240419192405 19 141 11.3 22.5 0.00 0.00 0.00 23 1008.2
20240419191905 19 158 11.3 20.9 0.00 0.00 0.00 22 1008.4
20240419190905 18 173 8.0 25.7 0.00 0.00 0.00 22 1008.5
20240419185905 18 145 11.3 20.9 0.00 0.00 0.00 23 1008.6
20240419185405 18 174 9.7 22.5 0.00 0.00 0.00 23 1008.7
20240419184905 18 187 8.0 22.5 0.00 0.00 0.00 24 1008.6
20240419183404 18 202 9.7 20.9 0.00 0.00 0.00 24 1009.0
20240419182904 18 153 6.4 19.3 0.00 0.00 0.00 24 1008.9
20240419182404 18 172 8.0 27.4 0.00 0.00 0.00 23 1009.0
20240419181904 18 167 9.7 27.4 0.00 0.00 0.00 25 1009.0
20240419181405 17 198 8.0 29.0 0.00 0.00 0.00 26 1009.0
20240419180905 17 210 8.0 29.0 0.00 0.00 0.00 25 1009.0
20240419175905 17 154 8.0 22.5 0.00 0.00 0.00 25 1008.9
20240419170905 16 144 8.0 20.9 0.00 0.00 0.00 31 1009.6
20240419170406 16 187 4.8 20.9 0.00 0.00 0.00 34 1009.6
20240419165905 15 143 6.4 14.5 0.00 0.00 0.00 34 1009.6